Date,TemperatureHighF,TemperatureAvgF,TemperatureLowF,DewpointHighF,DewpointAvgF,DewpointLowF,HumidityHigh,HumidityAvg,HumidityLow,PressureMaxIn,PressureMinIn,WindSpeedMaxMPH,WindSpeedAvgMPH,GustSpeedMaxMPH,PrecipitationSumIn
2013-1-1,48.2,44.3,39.6,44.2,35.2,24.3,88,72,48,29.82,29.69,5,0,9,0.40
2013-1-2,45.1,42.0,39.0,42.4,37.3,34.0,90,83,77,29.85,29.64,6,0,11,0.07
2013-1-3,45.9,37.9,29.1,37.5,32.7,23.4,88,82,69,29.97,29.80,4,0,9,0.00
2013-1-4,52.2,35.0,26.8,31.5,23.4,19.0,80,64,39,30.04,29.93,8,1,16,0.00
2013-1-5,53.4,37.3,26.1,29.9,23.0,17.6,71,58,32,30.07,29.92,10,1,16,0.00
2013-1-6,58.6,42.3,34.3,41.4,32.3,26.8,79,68,49,29.92,29.77,6,1,12,0.00
2013-1-7,59.4,41.1,29.5,33.1,26.9,23.0,78,59,33,30.09,29.90,15,1,25,0.00
2013-1-8,59.5,42.6,30.7,43.9,33.0,23.0,83,69,52,30.14,30.03,8,1,13,0.00
2013-1-9,55.2,51.0,47.1,51.7,47.5,41.9,91,88,82,30.20,30.08,5,0,7,0.00
2013-1-10,68.2,54.8,47.5,55.4,49.1,44.8,92,82,62,30.23,30.08,3,0,6,0.02
2013-1-11,57.9,52.5,48.7,55.9,49.8,45.2,94,91,85,30.08,29.89,5,0,10,1.01
2013-1-12,71.2,61.5,57.4,62.6,57.7,55.0,93,88,73,29.94,29.86,15,2,21,0.20
2013-1-13,69.3,60.6,56.8,59.7,56.1,53.9,91,85,71,29.90,29.81,19,5,30,0.09
2013-1-14,60.4,57.9,48.7,58.7,55.6,45.6,94,92,88,29.92,29.80,10,0,17,1.26
2013-1-15,54.0,50.4,47.3,52.0,47.9,44.5,94,91,89,29.90,29.77,0,0,1,2.23
2013-1-16,56.5,52.1,47.1,54.2,49.9,44.5,94,92,91,29.77,29.69,4,0,14,0.49
2013-1-17,53.2,45.3,34.0,51.0,42.5,29.7,93,90,84,29.91,29.51,8,0,20,2.50
2013-1-18,55.2,39.0,27.9,31.9,26.5,23.0,85,63,35,30.17,29.91,7,0,10,0.02
2013-1-19,59.9,42.3,30.0,36.1,27.7,23.1,75,58,34,30.15,29.87,11,1,15,0.00
2013-1-20,64.6,45.5,34.5,39.5,29.2,21.7,66,54,37,29.87,29.78,5,0,12,0.00
2013-1-21,62.6,42.4,32.2,35.9,24.7,13.7,73,52,29,29.83,29.69,9,1,12,0.00
2013-1-22,45.3,31.3,23.5,15.0,8.4,0.5,53,39,23,29.90,29.72,10,0,13,0.00
2013-1-23,52.2,34.3,22.8,22.8,13.5,2.8,59,43,31,29.99,29.75,6,0,9,0.00
2013-1-24,50.2,37.9,25.3,27.2,17.8,5.2,64,46,28,30.09,29.69,9,1,17,0.00
2013-1-25,33.8,27.7,22.3,30.2,16.7,3.8,87,65,42,30.11,29.75,13,1,18,0.00
2013-1-26,44.4,35.7,31.3,34.3,29.7,25.9,88,79,64,30.02,29.78,5,0,9,0.02
2013-1-27,52.9,37.4,29.8,35.6,28.5,24.6,83,71,49,30.18,30.01,6,0,13,0.00
2013-1-28,66.7,48.9,37.6,51.3,39.9,29.0,84,71,54,30.11,29.95,15,3,25,0.02
2013-1-29,72.7,56.5,45.1,56.0,49.0,40.0,90,77,53,29.98,29.78,13,2,19,0.13
2013-1-30,61.5,57.5,44.8,58.6,54.3,39.6,92,89,82,29.78,29.27,23,5,35,3.41
2013-1-31,49.5,39.3,31.8,39.6,24.5,17.9,84,57,36,29.72,29.32,16,2,24,0.02
2013-2-1,41.9,33.4,22.6,27.8,16.3,8.4,70,50,36,30.00,29.61,18,2,32,0.02
2013-2-2,45.3,31.5,21.4,29.8,19.1,8.7,85,62,33,30.00,29.70,16,3,24,0.00
2013-2-3,53.1,38.2,30.0,35.0,25.1,19.4,85,61,34,29.72,29.59,16,1,29,0.00
2013-2-4,54.9,37.0,25.5,30.5,22.2,16.6,72,56,34,29.82,29.70,16,2,28,0.00
2013-2-5,66.0,47.6,35.4,40.0,28.3,22.4,63,48,28,29.75,29.63,12,1,17,0.00
2013-2-6,67.8,49.1,36.7,37.4,29.6,22.4,72,50,28,29.95,29.73,7,1,10,0.00
2013-2-7,45.7,42.9,41.7,38.8,29.9,21.7,85,62,43,29.96,29.71,2,0,8,0.47
2013-2-8,54.0,44.0,34.5,46.4,36.5,25.7,89,76,49,29.84,29.63,13,1,20,0.00
2013-2-9,65.8,44.7,28.9,26.6,21.5,15.2,74,45,17,30.03,29.81,9,1,14,0.00
2013-2-10,56.1,44.5,38.5,41.0,27.9,21.2,87,54,33,30.10,29.86,13,1,16,0.62
2013-2-11,57.6,50.6,44.6,53.1,44.0,29.4,90,79,46,29.88,29.73,12,2,16,0.13
2013-2-12,59.0,46.0,38.8,36.5,31.2,24.6,82,58,38,29.84,29.66,8,1,14,0.16
2013-2-13,55.9,41.9,34.9,45.7,35.7,27.4,88,79,55,29.66,29.38,14,1,20,0.31
2013-2-14,61.2,42.1,30.6,36.1,29.3,25.3,81,63,36,29.77,29.61,9,1,15,0.00
2013-2-15,62.4,43.8,31.8,37.7,29.7,24.3,76,60,33,29.82,29.67,8,1,15,0.00
2013-2-16,38.3,32.5,24.1,29.0,22.0,9.0,74,65,49,29.70,29.55,12,1,18,0.05
2013-2-17,46.9,30.8,20.3,15.8,9.3,6.0,54,42,24,29.92,29.67,10,2,21,0.00
2013-2-18,60.1,39.4,24.6,28.8,18.5,7.9,57,44,29,30.02,29.87,14,2,20,0.00
2013-2-19,62.8,42.7,34.2,43.9,26.2,12.7,84,55,29,29.87,29.59,12,2,21,0.09
2013-2-20,54.0,38.4,28.0,20.2,11.6,5.8,42,34,23,29.83,29.73,10,2,14,0.00
2013-2-21,68.2,43.2,26.6,31.4,18.5,9.3,76,40,16,29.94,29.78,8,1,10,0.34
2013-2-22,40.8,38.5,36.3,36.4,33.5,30.1,86,82,76,29.96,29.79,4,0,10,0.68
2013-2-23,52.9,45.6,38.5,48.8,42.1,34.7,90,87,85,29.80,29.58,2,0,5,0.27
2013-2-24,66.2,48.2,37.0,43.0,34.4,23.0,89,63,31,29.78,29.60,10,2,15,0.00
2013-2-25,50.2,40.3,35.2,29.4,26.1,23.1,76,57,44,29.86,29.72,5,0,7,0.02
2013-2-26,42.4,36.8,34.0,37.4,32.5,28.4,88,84,76,29.74,29.32,10,0,15,1.66
2013-2-27,63.7,45.9,34.3,40.4,32.5,24.7,88,62,31,29.53,29.37,17,2,24,0.00
2013-2-28,54.7,40.1,33.6,31.9,24.9,20.9,64,55,39,29.61,29.44,15,1,17,0.00
2013-3-1,43.3,36.6,31.8,29.7,25.8,22.7,71,65,57,29.64,29.56,10,0,14,0.00
2013-3-2,52.2,36.9,28.2,33.5,25.5,18.0,80,65,38,29.63,29.55,12,1,18,0.02
2013-3-3,48.9,31.4,23.5,24.9,17.3,12.7,72,57,38,29.70,29.59,12,2,21,0.00
2013-3-4,59.7,39.7,22.6,25.1,18.7,11.9,66,46,24,29.82,29.66,10,1,13,0.00
2013-3-5,51.6,44.4,37.8,44.5,34.2,22.5,87,68,46,29.77,29.38,11,1,16,0.63
2013-3-6,45.7,34.2,28.0,29.2,23.2,17.0,73,64,46,29.83,29.40,14,3,21,0.02
2013-3-7,59.2,37.5,28.6,36.2,25.7,21.7,77,64,38,29.96,29.78,14,3,23,0.00
2013-3-8,65.5,41.9,25.9,31.5,22.4,14.9,79,51,21,30.03,29.92,12,1,18,0.00
2013-3-9,71.4,48.7,30.9,32.7,25.5,17.5,59,43,23,30.04,29.94,8,1,13,0.00
2013-3-10,72.5,53.7,41.9,38.1,31.3,26.8,57,44,26,30.01,29.89,11,2,20,0.00
2013-3-11,54.0,50.3,48.0,49.2,43.9,32.6,89,80,50,29.91,29.59,16,3,24,0.93
2013-3-12,63.7,49.9,37.0,49.7,40.1,27.2,91,71,46,29.77,29.52,10,1,21,0.34
2013-3-13,60.6,41.3,30.6,29.0,23.3,15.4,72,52,26,29.85,29.73,13,2,22,0.00
2013-3-14,60.1,38.1,24.4,24.3,16.6,12.5,61,44,24,29.97,29.85,10,1,15,0.00
2013-3-15,76.5,50.2,30.6,40.7,27.0,13.2,58,43,21,29.90,29.69,11,2,20,0.00
2013-3-16,83.1,65.7,54.9,48.2,41.8,37.4,54,43,26,29.71,29.55,18,4,22,0.00
2013-3-17,81.3,62.9,51.3,50.0,44.0,40.0,68,52,31,29.78,29.64,19,3,25,0.00
2013-3-18,51.3,43.3,39.9,41.4,37.9,35.2,89,82,68,29.80,29.59,2,0,7,0.54
2013-3-19,70.0,49.8,38.3,41.1,31.6,16.6,91,56,21,29.81,29.59,9,2,15,0.02
2013-3-20,65.5,44.9,32.7,25.7,14.5,4.6,69,31,11,29.82,29.56,14,1,23,0.00
2013-3-21,50.7,34.9,21.9,25.7,16.2,8.8,73,49,27,29.65,29.49,18,1,25,0.07
2013-3-22,55.6,37.5,25.2,24.8,17.1,9.5,54,44,29,29.74,29.64,10,1,13,0.00
2013-3-23,66.7,47.3,37.9,44.7,33.4,20.9,74,59,44,29.74,29.62,8,0,12,0.00
2013-3-24,46.2,43.1,39.9,40.5,38.0,36.1,88,82,71,29.67,29.28,6,0,12,1.13
2013-3-25,43.2,36.0,31.6,37.0,24.5,18.2,88,64,44,29.61,29.27,15,2,23,0.02
2013-3-26,45.7,34.3,28.6,26.6,21.6,17.9,71,60,45,29.88,29.58,12,1,17,0.00
2013-3-27,59.5,40.2,27.7,31.8,23.6,18.1,69,53,34,29.96,29.85,11,2,20,0.00
2013-3-28,66.6,41.1,27.7,26.9,18.8,12.0,70,46,17,30.01,29.90,12,1,18,0.00
2013-3-29,67.3,44.4,31.3,35.8,25.6,14.9,80,50,22,30.04,29.95,10,1,12,0.02
2013-3-30,69.1,51.7,40.1,48.8,39.2,35.4,86,65,37,29.95,29.80,12,1,18,0.07
2013-3-31,67.5,54.5,47.8,54.1,47.2,38.0,88,77,52,29.81,29.62,12,1,16,0.34
2013-4-1,74.5,55.5,43.0,48.9,41.0,30.5,90,63,32,29.75,29.62,16,2,20,0.04
2013-4-2,67.3,50.1,36.7,33.7,27.5,19.9,67,44,23,29.90,29.74,11,2,14,0.00
2013-4-3,68.9,51.3,38.5,28.8,21.8,14.9,39,32,20,29.99,29.86,7,1,12,0.00
2013-4-4,47.5,39.9,36.3,34.1,29.9,22.7,83,69,38,29.98,29.68,5,0,7,0.86
2013-4-5,70.7,49.8,37.6,47.1,37.0,32.0,87,65,30,29.82,29.62,11,1,14,0.00
2013-4-6,77.9,55.1,38.5,40.9,33.8,29.2,72,48,24,29.96,29.81,9,2,16,0.00
2013-4-7,75.4,58.5,43.9,45.6,38.6,30.9,65,49,34,29.95,29.86,16,4,24,0.00
2013-4-8,78.6,63.0,50.4,52.9,46.5,40.2,73,56,39,29.92,29.85,22,3,27,0.00
2013-4-9,90.0,67.8,54.0,58.0,51.7,46.9,79,59,34,29.99,29.88,14,3,21,0.00
2013-4-10,93.2,72.0,57.0,60.0,53.6,48.4,76,55,32,29.91,29.76,14,3,22,0.00
2013-4-11,80.4,67.5,58.6,60.6,54.9,50.3,88,66,42,29.78,29.51,17,4,28,0.56
2013-4-12,82.9,64.8,48.7,60.6,51.2,36.3,90,65,33,29.66,29.43,12,3,20,0.91
2013-4-13,81.1,60.4,45.7,47.7,37.7,33.1,65,46,23,29.82,29.62,12,2,22,0.00
2013-4-14,71.2,56.9,46.0,46.2,38.6,-9.2,78,52,9,29.86,29.76,15,2,25,0.07
2013-4-15,66.4,57.1,51.4,57.0,51.5,45.7,87,82,69,29.97,29.74,3,0,6,0.22
2013-4-16,86.4,66.4,56.3,61.9,55.9,52.0,89,71,43,30.05,29.96,10,1,13,0.00
2013-4-17,81.5,64.1,59.2,65.0,56.9,53.2,87,78,56,30.04,29.92,10,1,13,0.50
2013-4-18,79.5,65.7,57.9,60.5,56.5,53.9,88,74,47,29.92,29.74,15,2,22,0.00
2013-4-19,64.2,59.7,44.2,61.2,55.7,37.3,91,87,76,29.75,29.55,15,4,30,0.79
2013-4-20,71.6,50.4,36.1,40.2,32.4,26.6,78,53,30,30.01,29.70,10,1,15,0.00
2013-4-21,72.1,52.1,38.1,39.0,32.8,27.8,70,50,29,30.15,30.00,7,0,12,0.00
2013-4-22,73.9,54.5,42.6,44.5,36.9,30.0,72,54,31,30.12,29.95,5,0,9,0.00
2013-4-23,82.0,58.1,41.7,47.4,37.3,26.7,64,48,28,30.02,29.86,8,0,13,0.00
2013-4-24,72.9,59.8,50.4,55.1,48.9,41.6,83,68,52,29.90,29.80,15,3,25,0.02
2013-4-25,80.8,57.5,41.7,48.3,35.9,24.9,81,51,20,30.06,29.86,8,1,15,0.00
2013-4-26,78.6,58.3,41.9,42.1,33.7,27.0,60,41,23,30.16,30.04,8,0,12,0.00
2013-4-27,57.0,53.0,50.3,48.7,44.3,35.1,87,74,45,30.12,29.99,2,0,5,0.93
2013-4-28,52.9,50.7,48.4,49.4,47.3,44.7,90,88,86,30.00,29.79,2,0,5,2.12
2013-4-29,73.9,58.8,50.9,60.7,53.5,48.4,91,83,58,29.83,29.72,2,0,8,0.16
2013-4-30,84.0,63.2,53.2,60.5,54.2,50.0,90,75,44,29.95,29.76,2,0,9,0.00
2013-5-1,66.0,59.2,55.9,54.7,52.0,50.6,83,77,66,30.04,29.94,4,0,9,0.00
2013-5-2,59.5,56.0,54.0,55.5,52.0,49.8,90,86,82,30.05,29.98,2,0,7,0.09
2013-5-3,57.0,54.2,52.0,52.2,50.5,49.1,91,87,82,29.99,29.85,4,0,12,0.07
2013-5-4,52.9,49.4,46.9,49.4,45.4,41.6,91,86,81,29.85,29.73,4,0,9,0.68
2013-5-5,50.0,48.5,46.6,47.8,46.0,44.1,92,91,90,29.75,29.58,5,0,11,3.95
2013-5-6,71.4,55.9,47.3,52.0,47.3,41.0,93,75,42,29.68,29.55,9,0,12,0.07
2013-5-7,78.1,54.2,42.4,52.5,44.9,37.9,86,73,35,29.74,29.63,2,0,6,0.00
2013-5-8,67.6,57.4,48.4,56.8,50.6,44.7,88,79,66,29.83,29.69,1,0,2,0.00
2013-5-9,80.1,62.0,50.5,61.9,53.8,46.8,88,76,52,29.90,29.80,3,0,7,0.02
2013-5-10,78.8,64.9,55.6,59.6,55.2,51.1,86,72,51,29.90,29.77,16,1,23,0.00
2013-5-11,74.5,63.7,57.4,63.0,56.0,51.4,89,76,63,29.78,29.63,9,1,16,0.25
2013-5-12,77.4,58.4,47.7,54.9,44.9,32.4,89,64,33,29.83,29.67,6,1,15,0.00
2013-5-13,75.7,54.1,41.4,39.4,32.0,25.3,67,46,18,29.95,29.83,6,0,10,0.00
2013-5-14,78.3,58.3,41.5,49.7,40.0,30.5,66,52,31,30.00,29.86,7,0,13,0.00
2013-5-15,93.7,69.9,58.5,63.5,53.3,48.3,71,57,35,29.90,29.79,4,0,9,0.00
2013-5-16,80.8,68.2,58.6,61.1,54.1,48.5,73,61,47,29.87,29.79,0,0,9,0.00
2013-5-17,83.5,68.2,58.5,63.6,56.3,52.3,82,67,42,29.92,29.82,6,0,15,0.00
2013-5-18,66.4,63.4,61.0,61.7,58.4,53.7,90,84,67,29.91,29.86,2,0,9,1.13
2013-5-19,72.7,65.6,61.7,65.6,61.4,59.0,92,86,77,29.91,29.82,5,0,10,0.04
2013-5-20,85.8,67.8,61.0,70.4,62.1,58.3,91,83,57,29.93,29.85,1,0,9,0.00
2013-5-21,86.2,70.8,61.3,71.0,63.0,57.8,91,77,57,29.88,29.78,2,0,7,0.00
2013-5-22,86.4,68.6,61.9,68.0,61.3,57.5,89,79,52,29.83,29.71,6,0,12,0.27
2013-5-23,80.4,66.6,61.2,68.4,60.4,54.4,91,81,62,29.77,29.67,5,0,10,0.14
2013-5-24,78.8,62.4,51.1,55.3,48.1,38.6,80,62,37,30.00,29.70,12,0,15,0.00
2013-5-25,82.6,60.2,45.5,51.2,41.4,34.2,73,52,30,30.08,29.96,4,0,10,0.00
2013-5-26,81.1,62.2,51.8,56.8,46.0,34.7,75,56,38,30.06,29.95,4,0,7,0.00
2013-5-27,85.3,66.3,53.4,61.5,53.1,46.7,83,64,40,30.04,29.95,6,0,15,0.00
2013-5-28,86.4,70.1,60.4,63.0,57.7,54.1,82,66,43,30.02,29.95,10,0,12,0.00
2013-5-29,88.3,70.8,60.1,66.3,59.2,54.8,85,68,45,30.04,29.96,4,0,8,0.00
2013-5-30,87.6,70.5,60.6,67.1,59.7,55.8,87,70,47,30.08,29.98,4,0,8,0.00
2013-5-31,84.6,71.0,63.3,63.8,59.6,56.8,87,69,48,30.04,29.94,5,0,12,0.00
2013-6-1,84.9,71.8,64.2,64.9,61.0,58.2,88,70,47,29.95,29.85,12,1,22,0.00
2013-6-2,73.8,66.3,63.7,68.8,62.5,60.3,92,88,77,29.88,29.74,9,0,15,1.58
2013-6-3,78.4,67.8,63.0,71.1,63.6,59.8,92,87,77,29.80,29.70,2,0,6,0.07
2013-6-4,85.3,68.5,60.3,68.3,61.8,56.9,90,80,55,29.91,29.78,2,0,7,0.00
2013-6-5,81.5,69.3,64.6,70.0,63.7,60.7,90,83,67,29.91,29.79,2,0,9,0.52
2013-6-6,75.6,67.9,63.0,68.6,63.5,60.3,92,86,75,29.81,29.62,3,0,10,0.14
2013-6-7,85.3,69.3,64.0,72.2,64.2,60.3,92,85,58,29.68,29.52,6,0,7,1.66
2013-6-8,82.6,68.9,60.4,71.3,63.5,57.5,92,83,66,29.92,29.66,6,0,10,0.04
2013-6-9,77.2,67.9,63.3,70.8,64.0,59.6,92,87,77,29.96,29.86,6,0,10,2.77
2013-6-10,77.9,68.6,64.6,69.1,64.3,62.5,93,87,65,29.87,29.74,5,0,14,0.99
2013-6-11,89.8,71.6,62.2,71.2,64.1,59.6,92,79,50,29.86,29.76,4,0,11,0.00
2013-6-12,94.8,74.8,63.3,77.0,66.1,59.2,87,76,44,29.88,29.79,7,0,9,0.00
2013-6-13,92.8,74.1,66.9,68.4,63.8,59.8,83,71,42,29.79,29.60,11,0,18,0.00
2013-6-14,86.5,69.2,59.7,63.2,56.7,52.7,83,66,42,29.88,29.65,11,1,19,0.00
2013-6-15,84.9,67.9,56.3,64.9,56.8,49.9,81,69,47,29.96,29.87,6,0,9,0.00
2013-6-16,83.8,70.4,61.3,66.8,61.0,55.5,83,73,55,29.96,29.86,6,0,11,0.00
2013-6-17,81.7,71.3,66.7,72.8,65.7,62.4,90,83,72,29.88,29.78,6,0,10,0.09
2013-6-18,84.9,70.2,64.8,70.5,64.6,58.8,93,83,59,29.80,29.65,8,1,14,0.02
2013-6-19,81.1,69.1,61.3,68.0,61.7,57.3,88,78,62,29.94,29.75,5,0,8,0.00
2013-6-20,82.4,69.9,63.1,69.0,62.5,58.1,87,78,61,30.05,29.93,7,0,13,0.00
2013-6-21,87.6,71.5,62.8,68.3,62.2,58.7,88,74,50,30.08,30.00,5,0,10,0.00
2013-6-22,89.4,71.5,61.7,66.8,59.9,56.8,87,69,43,30.06,29.95,5,0,9,0.00
2013-6-23,88.9,70.8,61.5,71.3,62.6,56.3,87,76,55,30.04,29.95,5,0,7,0.07
2013-6-24,82.2,70.6,64.6,71.2,65.4,61.6,91,84,66,30.05,29.93,1,0,3,0.43
2013-6-25,88.0,69.8,64.8,73.0,64.7,61.8,91,84,59,29.98,29.87,0,0,0,0.13
2013-6-26,86.7,71.1,63.5,75.8,66.3,60.8,93,85,65,29.90,29.77,0,0,0,0.02
2013-6-27,86.5,73.2,64.2,76.2,67.7,61.2,92,84,65,29.80,29.62,7,0,13,0.13
2013-6-28,91.6,73.9,65.7,71.5,66.1,62.3,90,78,48,29.68,29.50,7,0,12,0.02
2013-6-29,86.7,71.5,62.2,70.1,63.4,58.5,90,77,54,29.57,29.50,3,0,7,0.02
2013-6-30,85.6,70.7,62.1,66.6,61.6,56.7,86,74,51,29.67,29.54,7,0,12,0.00
2013-7-1,83.1,69.5,64.2,69.7,64.0,61.0,91,83,61,29.79,29.64,5,0,9,2.22
2013-7-2,85.1,70.9,64.4,69.7,65.1,61.6,93,83,59,29.95,29.78,5,0,10,0.22
2013-7-3,74.1,68.2,62.8,70.5,65.2,59.9,93,90,86,30.03,29.91,4,0,10,2.08
2013-7-4,72.1,65.8,62.4,70.3,63.6,59.8,94,93,90,30.04,29.97,5,0,14,2.21
2013-7-5,81.3,69.8,65.8,71.6,65.8,63.8,95,88,68,30.06,29.98,5,0,11,0.27
2013-7-6,82.4,70.1,65.3,72.3,66.7,63.2,94,89,71,30.03,29.94,5,0,9,1.80
2013-7-7,77.7,71.5,67.8,70.9,67.8,66.0,95,88,78,29.99,29.91,6,0,13,0.20
2013-7-8,86.2,73.3,67.6,74.1,68.6,65.1,93,85,66,30.03,29.95,4,0,9,0.00
2013-7-9,92.5,74.7,66.9,75.6,68.9,64.5,94,83,53,30.01,29.91,2,0,15,0.20
2013-7-10,84.0,71.2,65.8,75.8,67.8,63.0,93,89,71,29.98,29.81,8,0,12,5.06
2013-7-11,76.3,70.1,66.0,72.5,67.6,63.9,94,92,88,29.82,29.73,0,0,0,0.00
2013-7-12,84.2,70.3,64.6,75.1,66.5,60.9,94,88,71,29.84,29.73,5,0,10,0.02
2013-7-13,72.5,67.0,63.3,68.7,64.3,60.6,93,91,87,29.94,29.82,1,0,4,0.07
2013-7-14,71.4,68.4,65.8,69.7,66.5,64.1,95,94,91,30.11,29.93,4,0,7,0.65
2013-7-15,85.3,72.2,66.0,75.1,68.8,64.9,100,90,69,30.15,30.09,4,0,9,0.02
2013-7-16,92.3,75.0,66.4,76.9,69.3,64.2,94,83,57,30.16,30.08,3,0,7,0.00
2013-7-17,86.7,72.9,66.9,76.7,68.8,64.5,94,87,68,30.13,30.00,5,0,10,0.72
2013-7-18,87.6,73.4,65.7,77.4,68.6,63.6,94,86,69,30.06,29.93,3,0,7,3.05
2013-7-19,91.0,74.9,66.4,76.1,68.5,63.7,92,82,56,29.98,29.85,8,0,12,0.00
2013-7-20,82.9,72.3,68.4,75.3,68.1,65.5,91,87,69,29.90,29.79,3,0,7,0.00
2013-7-21,81.0,69.9,66.7,74.4,67.0,64.3,93,91,77,29.86,29.80,6,0,8,1.13
2013-7-22,85.8,71.9,65.1,76.0,67.8,63.3,94,87,68,29.85,29.70,7,0,14,0.36
2013-7-23,88.0,71.6,64.0,74.2,66.9,61.8,94,86,60,29.76,29.65,6,0,9,0.02
2013-7-24,89.4,72.7,65.3,75.5,66.8,62.8,93,82,57,29.72,29.64,7,0,12,0.00
2013-7-25,89.2,71.3,64.0,72.7,64.7,60.3,91,81,55,29.87,29.70,4,0,8,0.00
2013-7-26,85.6,70.1,62.2,70.9,64.2,58.6,91,82,59,29.93,29.85,7,0,15,0.84
2013-7-27,77.7,70.4,66.0,71.6,66.6,63.6,94,88,74,29.89,29.74,1,0,7,0.84
2013-7-28,85.1,71.7,64.9,72.4,65.5,61.6,92,82,61,29.88,29.75,0,0,0,0.00
2013-7-29,86.7,70.5,61.5,70.2,61.9,56.0,89,75,55,30.03,29.86,0,0,0,0.00
2013-7-30,84.0,70.0,60.6,71.5,62.5,54.2,86,77,65,30.05,29.98,0,0,0,0.00
2013-7-31,73.6,69.4,66.7,69.6,66.1,64.0,92,89,83,30.01,29.82,0,0,0,0.25
2013-8-1,83.8,71.2,66.0,75.9,67.3,63.1,93,88,75,29.84,29.76,0,0,0,0.07
2013-8-2,82.8,71.2,62.6,72.3,65.8,59.9,92,84,68,29.88,29.78,0,0,0,0.00
2013-8-3,82.6,71.7,66.2,72.0,66.5,63.5,92,84,70,29.88,29.82,0,0,0,0.00
2013-8-4,84.9,72.1,64.9,73.3,65.6,60.4,92,81,63,29.89,29.81,0,0,0,0.00
2013-8-5,84.7,71.2,63.0,70.9,64.1,58.7,88,79,62,29.91,29.81,0,0,0,0.00
2013-8-6,84.9,73.2,68.7,72.4,68.0,65.7,91,84,65,29.89,29.80,0,0,0,0.04
2013-8-7,72.0,69.2,67.6,69.8,66.9,65.6,94,92,89,29.91,29.84,4,0,7,1.70
2013-8-8,79.5,71.2,66.6,72.8,68.2,64.8,95,90,79,29.90,29.85,6,0,9,0.04
2013-8-9,83.5,73.1,68.4,74.4,69.1,65.9,93,87,73,29.94,29.86,4,0,8,0.02
2013-8-10,79.7,71.6,67.3,74.4,68.6,65.2,93,90,83,29.98,29.91,10,0,15,2.42
2013-8-11,82.9,70.7,65.3,78.1,68.2,63.2,95,92,82,29.99,29.91,0,0,0,0.56
2013-8-12,86.9,71.1,66.6,77.5,68.4,64.6,95,91,72,29.95,29.83,12,0,23,2.63
2013-8-13,79.3,70.5,66.0,75.1,68.0,63.8,95,92,85,29.84,29.69,1,0,2,0.13
2013-8-14,83.7,68.7,63.1,70.2,62.5,57.0,94,82,58,29.90,29.74,0,0,0,0.00
2013-8-15,67.1,62.4,58.5,60.4,57.9,54.8,90,85,78,29.96,29.87,0,0,0,0.00
2013-8-16,75.4,63.5,57.9,63.9,58.0,54.4,89,83,66,29.97,29.88,0,0,0,0.00
2013-8-17,66.7,62.5,58.8,60.4,58.2,54.6,91,86,79,29.99,29.93,0,0,0,0.18
2013-8-18,76.6,66.3,61.5,70.4,62.8,58.9,93,89,77,30.03,29.93,0,0,0,0.13
2013-8-19,72.0,66.3,63.1,68.0,63.9,61.1,94,92,87,30.01,29.92,0,0,0,2.13
2013-8-20,77.7,69.0,64.8,71.8,66.3,63.0,94,91,81,30.03,29.93,0,0,0,0.02
2013-8-21,72.7,68.6,66.0,69.6,66.3,63.9,95,92,89,30.06,29.96,3,0,7,0.09
2013-8-22,80.2,69.4,64.2,73.9,66.5,62.5,94,91,80,30.01,29.89,1,0,4,0.56
2013-8-23,87.3,71.2,62.6,76.2,66.4,60.5,94,86,63,29.92,29.83,0,0,0,0.00
2013-8-24,85.6,69.8,62.8,69.9,63.1,57.2,92,80,55,30.12,29.91,0,0,0,0.00
2013-8-25,84.0,66.9,57.4,67.5,58.7,53.2,89,76,52,30.19,30.08,0,0,0,0.00
2013-8-26,86.2,67.8,56.8,69.0,59.7,53.0,89,77,52,30.14,29.96,0,0,0,0.00
2013-8-27,89.2,70.6,59.2,73.4,63.2,55.3,90,79,56,29.99,29.87,0,0,0,0.00
2013-8-28,90.1,73.3,64.2,75.6,66.8,60.9,90,81,58,29.90,29.81,0,0,0,0.00
2013-8-29,89.3,74.8,66.6,78.1,68.5,63.1,91,81,62,29.85,29.78,0,0,0,0.00
2013-8-30,80.8,71.9,68.9,74.1,68.1,65.9,92,88,78,29.90,29.80,0,0,0,0.09
2013-8-31,87.3,71.5,66.2,76.4,68.0,64.0,93,89,70,29.82,29.74,0,0,0,0.34
2013-9-1,87.4,72.4,65.8,74.9,67.5,63.8,94,85,66,29.77,29.67,0,0,0,0.07
2013-9-2,86.0,70.2,64.6,75.3,66.6,62.2,93,89,70,29.78,29.69,0,0,0,0.43
2013-9-3,89.1,71.2,62.2,75.0,65.7,59.4,94,84,60,29.84,29.71,0,0,0,0.20
2013-9-4,86.2,70.3,61.5,71.9,64.5,58.6,92,83,60,29.95,29.82,0,0,0,0.00
2013-9-5,89.1,71.0,62.6,72.3,62.4,56.8,92,76,48,29.98,29.91,0,0,0,0.00
2013-9-6,87.1,68.8,58.8,68.5,60.4,54.8,88,76,52,30.02,29.91,0,0,0,0.00
2013-9-7,86.4,68.9,58.3,69.7,61.9,55.1,91,79,57,29.95,29.84,0,0,0,0.00
2013-9-8,81.0,68.9,61.0,71.5,63.5,57.4,91,83,67,29.86,29.80,0,0,0,0.00
2013-9-9,86.7,71.9,63.7,73.0,65.4,60.7,91,81,61,29.99,29.86,1,0,6,0.00
2013-9-10,91.8,72.1,62.2,72.7,64.9,59.0,92,79,53,30.08,29.98,1,0,4,0.00
2013-9-11,90.3,71.3,62.4,74.5,65.0,58.6,89,81,57,30.07,29.95,5,0,6,0.00
2013-9-12,87.3,70.8,64.4,73.6,65.3,60.7,91,83,63,29.95,29.72,2,0,5,0.00
2013-9-13,85.8,68.7,60.4,65.6,59.0,50.6,92,73,43,29.74,29.66,5,0,12,0.02
2013-9-14,82.8,63.7,52.9,59.2,53.1,47.2,84,70,42,29.92,29.73,2,0,7,0.00
2013-9-15,81.3,65.5,57.2,65.7,57.3,52.3,86,76,52,30.01,29.92,6,0,12,0.00
2013-9-16,82.0,67.1,56.8,67.9,60.0,53.0,89,79,62,29.98,29.90,4,0,6,0.00
2013-9-17,71.8,64.1,60.4,60.0,56.6,54.4,82,77,64,30.09,29.98,1,0,4,0.00
2013-9-18,67.8,61.5,57.6,59.2,55.7,51.8,88,81,73,30.07,29.96,0,0,0,0.00
2013-9-19,79.2,65.7,60.3,68.1,61.3,56.5,90,86,67,29.99,29.90,1,0,3,0.29
2013-9-20,83.8,68.5,59.9,72.5,63.2,57.3,93,84,64,29.92,29.76,6,0,12,0.02
2013-9-21,66.2,63.7,59.4,63.6,60.8,57.0,93,90,86,29.77,29.54,4,0,10,1.25
2013-9-22,81.7,64.2,55.8,63.1,56.3,52.3,93,77,51,29.74,29.57,4,0,9,0.00
2013-9-23,79.3,63.5,56.1,63.3,56.1,51.6,88,78,57,29.86,29.72,4,0,7,0.00
2013-9-24,72.7,63.4,55.6,63.0,57.7,52.1,90,82,68,29.88,29.74,2,0,4,0.00
2013-9-25,62.8,61.0,57.4,59.2,58.0,55.1,92,90,87,29.75,29.67,0,0,0,1.31
2013-9-26,73.4,61.1,57.0,65.8,57.8,54.0,93,89,77,29.85,29.68,1,0,4,0.00
2013-9-27,81.1,62.6,51.3,64.8,55.9,48.4,92,80,55,29.98,29.85,4,0,7,0.02
2013-9-28,72.7,62.0,55.0,60.7,55.4,50.9,88,79,66,30.03,29.95,1,0,4,0.00
2013-9-29,77.4,61.7,51.4,61.4,53.9,47.3,87,76,56,29.97,29.83,4,0,10,0.00
2013-9-30,77.4,62.1,53.8,62.7,55.3,50.0,89,79,58,29.90,29.81,0,0,0,0.00
2013-10-1,82.6,63.3,52.7,65.5,56.6,49.2,90,80,52,29.96,29.86,0,0,0,0.00
2013-10-2,85.6,66.4,55.8,68.3,58.7,52.3,90,78,50,29.98,29.90,0,0,0,0.00
2013-10-3,86.0,67.2,58.8,68.5,59.8,55.1,88,78,52,29.96,29.89,0,0,0,0.00
2013-10-4,88.5,68.6,58.3,68.3,60.4,54.7,89,77,48,29.99,29.91,0,0,0,0.00
2013-10-5,87.3,68.8,57.9,69.4,61.0,54.1,89,78,50,29.97,29.87,0,0,0,0.00
2013-10-6,80.2,67.2,59.7,66.1,60.5,56.3,90,80,59,29.89,29.71,0,0,0,0.02
2013-10-7,66.7,61.2,55.6,60.8,56.3,48.1,91,84,74,29.82,29.63,0,0,0,1.79
2013-10-8,74.8,58.8,49.6,56.1,49.7,45.0,87,73,51,29.99,29.79,0,0,0,0.00
2013-10-9,79.3,59.2,48.6,57.4,48.5,41.7,82,69,46,30.00,29.90,1,0,8,0.00
2013-10-10,80.4,60.2,45.7,59.3,50.2,41.3,89,71,46,29.92,29.82,3,0,13,0.00
2013-10-11,83.5,63.0,51.6,61.5,52.5,47.3,87,71,38,29.84,29.77,4,0,7,0.00
2013-10-12,79.7,63.5,54.9,63.3,55.7,49.8,86,76,56,29.90,29.79,2,0,12,0.02
2013-10-13,73.2,63.6,59.5,63.5,58.7,55.7,90,84,72,30.01,29.90,1,0,5,0.04
2013-10-14,67.8,61.4,57.7,63.3,58.1,54.8,91,89,83,30.03,29.95,1,0,5,0.02
2013-10-15,69.1,59.9,56.3,61.4,55.9,52.8,91,87,74,29.98,29.85,2,0,5,0.02
2013-10-16,68.7,59.1,52.3,59.7,54.3,49.2,91,84,73,29.87,29.76,2,0,6,0.00
2013-10-17,63.9,60.8,57.7,61.0,57.9,54.3,93,90,87,29.77,29.67,7,1,12,0.02
2013-10-18,72.7,58.2,48.9,59.3,52.0,46.0,90,81,60,29.81,29.72,3,0,9,0.00
2013-10-19,64.0,57.1,49.6,55.6,51.7,45.0,89,82,71,29.76,29.63,0,0,0,0.00
2013-10-20,73.8,54.4,42.6,51.5,44.5,38.4,86,71,42,29.85,29.72,3,0,8,0.00
2013-10-21,73.2,54.8,43.3,54.9,46.6,38.4,85,75,50,29.90,29.77,9,0,20,0.00
2013-10-22,74.5,58.1,52.2,58.9,50.8,47.5,87,77,56,29.79,29.60,0,0,4,0.00
2013-10-23,70.3,51.8,37.8,47.5,38.8,27.2,85,64,35,29.77,29.53,4,0,14,0.00
2013-10-24,63.0,45.6,34.2,41.8,33.6,26.9,77,64,44,29.90,29.77,3,0,7,0.00
2013-10-25,61.5,43.3,32.2,35.1,29.4,23.8,78,60,34,30.06,29.89,7,0,14,0.00
2013-10-26,64.6,44.1,31.3,38.1,30.7,23.5,75,61,35,30.05,29.81,5,0,15,0.00
2013-10-27,72.1,53.9,43.5,52.2,43.3,35.4,80,68,48,29.89,29.79,2,0,6,0.00
2013-10-28,63.5,54.9,50.7,56.0,50.0,44.8,88,83,74,30.02,29.86,0,0,0,0.09
2013-10-29,74.5,57.7,46.9,58.5,50.0,43.6,91,77,52,30.10,30.00,2,0,7,0.00
2013-10-30,79.9,63.2,54.9,60.3,54.0,49.6,85,73,50,30.06,29.95,4,0,7,0.00
2013-10-31,63.1,60.1,57.6,58.3,54.3,51.9,91,81,71,29.96,29.67,10,1,17,0.09
2013-11-1,80.4,64.5,54.1,62.7,57.0,46.6,93,78,45,29.67,29.46,11,2,22,0.11
2013-11-2,69.1,52.6,43.9,49.7,41.2,34.3,79,66,46,29.76,29.55,8,0,15,0.00
2013-11-3,69.4,49.7,39.2,43.7,36.2,31.6,80,62,38,30.08,29.74,7,0,14,0.00
2013-11-4,65.1,48.5,39.4,38.5,32.9,29.6,70,56,36,30.22,30.07,5,0,12,0.00
2013-11-5,64.0,47.4,36.9,39.9,33.1,27.8,71,59,34,30.24,30.14,2,0,6,0.02
2013-11-6,70.7,56.1,47.5,54.9,48.2,39.9,87,75,55,30.15,29.90,5,0,10,0.02
2013-11-7,72.5,54.4,40.6,59.1,44.6,28.5,88,71,45,29.90,29.78,9,0,12,0.02
2013-11-8,65.3,45.5,33.1,33.2,25.7,20.8,71,49,24,30.03,29.90,8,0,14,0.00
2013-11-9,61.7,45.5,33.8,34.0,27.9,21.2,61,51,34,30.06,29.94,9,0,12,0.00
2013-11-10,76.6,53.6,39.9,43.2,31.7,26.4,61,46,23,30.01,29.92,3,0,9,0.00
2013-11-11,71.2,50.6,36.3,37.3,29.0,22.0,58,45,28,30.06,29.89,6,0,9,0.00
2013-11-12,64.0,42.4,25.3,38.6,26.9,12.6,64,54,37,30.13,29.82,6,0,17,0.00
2013-11-13,54.9,35.3,22.1,19.6,14.3,11.2,64,45,22,30.20,30.11,9,0,17,0.00
2013-11-14,66.9,42.8,26.8,28.7,18.9,13.2,59,41,19,30.15,30.01,4,0,9,0.00
2013-11-15,52.3,46.1,38.3,45.8,32.5,15.8,87,61,36,30.03,29.92,5,0,7,0.20
2013-11-16,65.7,53.8,48.7,57.6,49.4,44.7,89,85,73,30.01,29.92,5,0,8,0.04
2013-11-17,59.4,56.2,54.1,55.6,53.3,50.5,93,90,86,29.95,29.68,9,1,15,0.52
2013-11-18,72.7,57.3,42.4,56.9,44.5,29.8,94,65,34,29.79,29.64,11,1,20,0.04
2013-11-19,63.7,46.5,37.9,31.2,27.2,23.5,67,49,27,29.95,29.77,9,0,15,0.00
2013-11-20,58.3,43.1,33.1,32.8,26.9,22.9,69,54,35,30.13,29.95,3,0,8,0.00
2013-11-21,48.9,45.5,41.7,45.2,38.2,29.3,87,76,61,30.18,30.08,0,0,0,0.27
2013-11-22,66.6,55.3,48.4,60.0,51.6,44.9,92,88,76,30.11,29.90,8,1,17,0.04
2013-11-23,55.9,47.9,33.6,53.0,40.8,22.3,91,77,57,29.93,29.86,10,1,18,0.00
2013-11-24,46.0,32.3,23.5,22.4,13.6,6.7,66,48,26,30.14,29.91,5,0,15,0.00
2013-11-25,44.6,32.8,24.4,19.4,13.0,8.0,56,44,32,30.15,29.97,4,0,8,0.00
2013-11-26,43.3,39.3,32.2,40.6,34.4,19.4,90,83,56,29.97,29.39,3,0,8,2.21
2013-11-27,43.9,33.9,23.9,41.1,27.1,15.7,90,76,61,29.86,29.32,9,2,20,0.11
2013-11-28,53.4,33.8,19.8,31.0,20.7,13.2,77,61,33,30.12,29.85,5,0,6,0.00
2013-11-29,61.3,40.6,29.1,33.5,25.2,21.2,74,57,33,30.26,30.11,2,0,5,0.00
2013-11-30,53.2,38.2,29.8,30.2,23.7,20.4,69,57,39,30.27,30.04,1,0,6,0.00
2013-12-1,65.1,43.2,30.7,42.3,30.0,21.3,72,61,41,30.04,29.74,5,0,8,0.00
2013-12-2,62.4,45.7,35.4,44.6,36.4,28.3,79,70,51,29.74,29.55,2,0,6,0.00
2013-12-3,56.8,49.6,44.2,50.2,44.6,40.1,88,83,75,29.71,29.59,11,0,16,0.00
2013-12-4,65.3,55.5,49.8,56.6,51.4,46.7,92,87,72,29.83,29.69,12,2,18,0.00
2013-12-5,68.9,60.9,57.0,62.7,58.0,54.7,93,90,78,29.86,29.77,9,2,20,0.68
2013-12-6,67.8,63.4,53.8,63.1,60.5,50.5,94,90,84,29.84,29.74,17,4,23,1.10
2013-12-7,58.8,49.3,41.5,50.9,43.7,38.5,91,82,64,30.08,29.79,5,0,10,0.02
2013-12-8,44.4,39.2,36.5,40.3,35.8,33.3,89,88,86,30.08,29.90,3,0,8,0.69
2013-12-9,55.4,48.1,38.1,53.1,45.7,35.2,93,91,89,29.91,29.76,10,2,17,0.72
2013-12-10,53.2,44.0,28.0,49.4,37.3,22.1,93,78,50,30.00,29.63,6,0,17,0.25
2013-12-11,55.8,37.5,25.3,34.4,24.6,18.6,81,62,37,30.11,29.99,4,0,7,0.00
2013-12-12,49.8,36.4,27.0,28.0,20.6,12.0,73,54,36,30.08,29.97,7,0,12,0.00
2013-12-13,54.1,44.1,27.5,27.1,23.4,7.2,63,45,34,30.05,29.93,4,0,7,0.00
2013-12-14,43.2,40.3,36.7,40.1,32.5,22.9,89,74,50,29.95,29.51,1,0,4,0.92
2013-12-15,52.0,40.1,29.5,42.0,32.7,23.8,90,76,55,29.82,29.49,4,0,14,0.00
2013-12-16,60.4,41.2,28.0,38.1,28.2,23.4,85,63,35,29.89,29.80,5,0,13,0.00
2013-12-17,64.2,47.5,36.1,38.9,29.5,23.2,69,51,31,29.86,29.69,14,1,20,0.00
2013-12-18,53.2,39.3,30.0,25.3,18.7,13.3,61,44,29,29.99,29.80,6,0,10,0.00
2013-12-19,64.2,45.6,32.2,34.5,23.8,14.0,59,43,30,30.02,29.92,10,1,16,0.00
2013-12-20,64.9,51.0,43.5,45.2,34.1,24.6,78,53,33,29.95,29.86,13,2,20,0.00
2013-12-21,62.2,56.6,51.8,59.9,52.9,45.2,93,88,78,29.90,29.74,12,1,24,0.79
2013-12-22,62.6,58.7,55.9,60.2,56.3,53.5,93,92,90,29.84,29.72,14,2,27,2.83
2013-12-23,55.9,48.9,35.8,53.9,45.2,30.5,93,87,78,29.91,29.77,8,0,14,0.25
2013-12-24,45.7,33.9,23.5,32.0,24.2,14.5,83,68,48,30.06,29.89,9,0,14,0.00
2013-12-25,46.9,30.7,21.4,24.7,17.7,14.1,75,60,40,30.14,30.01,1,0,6,0.00
2013-12-26,56.5,36.6,25.0,33.0,22.7,15.6,70,58,40,30.04,29.95,4,0,8,0.00
2013-12-27,56.8,39.3,28.9,34.0,26.0,21.9,77,60,39,30.14,30.02,4,0,6,0.00
2013-12-28,45.1,37.4,29.7,36.7,29.0,22.1,85,72,54,30.10,29.80,6,0,7,0.36
2013-12-29,55.8,43.2,37.9,48.5,38.6,33.7,89,84,71,29.81,29.55,5,0,7,0.86
2013-12-30,47.8,39.8,35.8,40.6,34.9,31.8,88,83,74,29.85,29.70,6,0,11,0.00
2013-12-31,48.7,36.3,30.6,34.1,26.6,20.0,85,69,47,30.05,29.82,2,0,6,0.00
2014-1-1,48.2,37.1,29.5,31.3,25.8,20.1,75,64,48,30.05,29.82,8,0,15,0.00
2014-1-2,46.4,38.6,22.1,42.9,32.4,12.6,88,78,65,29.83,29.40,12,1,23,0.07